Погода в Эльбрусе

Россия / Кабардино-Балкарская Республика     43°15′13″N   42°38′23″E
темп.,
°C
ветер,
м/с
пор.,
м/с
влажн.,
%
обл.,
%
осадки,
мм/ч
давл.,
гПа
погр.,
м
6 марта, сб
сб600:00−14юз33420 0.0 102226
03:00−14юз33368 0.0 102225
06:00−14юз44302 0.0 102128
09:00−8ююз445010 0.0 1019101
12:00−6ююз5653100 0.0 1017534
15:00−7ююз5667100 0.0 1015655
18:00−12ююз5592100 0.0 101687
21:00−13ююз558894 0.0 1016107
7 марта, вс
вс700:00−12ююз5692100 0.3 1017154
03:00−13ююз5593100 1.0 1019109
06:00−13ююз4594100 1.3 1021147
09:00−11ююз4592100 3.1 1023337
12:00−9юз5788100 1.9 1023958
15:00−11юз5884100 2.6 1023974
18:00−17юз559669 0.1 102575
21:00−19ююз549879 0.2 102660
8 марта, пн
пн800:00−20ююз437656 0.0 102536
03:00−19ююз437727 0.0 102537
06:00−19ююз43790 0.0 102436
09:00−13ююз45790 0.0 1022199
12:00−11ююз558319 0.0 1019580
15:00−10ююз458341 0.1 1017780
18:00−15юз339680 0.3 101827
21:00−17юз339786 0.6 101930
9 марта, вт
вт900:00−19юз339778 0.1 101925
03:00−19юз339788 0.1 101925
06:00−21юз339898 0.1 102023
09:00−16ююз449398 0.1 1019230
12:00−13ююз558054 0.1 1017645
15:00−13юз557944 0.2 1017823
18:00−18юз449736 0.1 101946
21:00−20юз549765 0.3 102352
10 марта, ср
ср1000:00−21ююз548651 0.0 102462
03:00−22юз447928 0.0 102443
06:00−22ююз43728 0.0 102534
09:00−16ююз446754 0.0 1023203
12:00−13ююз457089 0.0 1021537
15:00−13ююз458195 0.0 1019583
18:00−15ююз4494100 0.3 1019181
21:00−16ююз3495100 1.1 1020142